• In Deutschland
  • Länderverzeichnis
  • Für 7 Tage
  • Wassertemperatur
  • Satellitenkarten
  • Wetterkarte
  • Widgets
  • user-avatar
    Anmelden

    Stündliche Wetter Warna

    Heute, 22 Juli, Sonntag

    Zeit Temperatur Niederschläge Wind Luftdruck Luftfeuchtigkeit
    00:00 +23°C° 0,2 mm 1 m/S 743 mmHg 81%
    01:00 +23°C° 0,2 mm 2 m/S 743 mmHg 81%
    02:00 +21°C° 0,2 mm 2 m/S 743 mmHg 82%
    03:00 +21°C° 0,1 mm 2 m/S 743 mmHg 82%
    04:00 +21°C° 0,1 mm 2 m/S 743 mmHg 81%
    05:00 +21°C° 0,1 mm 2 m/S 743 mmHg 81%
    06:00 +23°C° 0 mm 1 m/S 743 mmHg 75%
    07:00 +25°C° 0 mm 1 m/S 743 mmHg 69%
    08:00 +27°C° 0 mm 1 m/S 743 mmHg 62%
    09:00 +28°C° 0,1 mm 1 m/S 743 mmHg 57%
    10:00 +30°C° 0,1 mm 1 m/S 743 mmHg 53%
    11:00 +31°C° 0,1 mm 1 m/S 743 mmHg 48%
    12:00 +32°C° 0 mm 2 m/S 742 mmHg 46%
    13:00 +32°C° 0 mm 2 m/S 742 mmHg 44%
    14:00 +34°C° 0 mm 3 m/S 742 mmHg 43%
    15:00 +33°C° 0 mm 3 m/S 741 mmHg 46%
    16:00 +33°C° 0 mm 3 m/S 741 mmHg 49%
    17:00 +32°C° 0 mm 4 m/S 741 mmHg 52%
    18:00 +29°C° 0 mm 4 m/S 741 mmHg 60%
    19:00 +27°C° 0 mm 3 m/S 740 mmHg 67%
    20:00 +25°C° 0 mm 3 m/S 740 mmHg 75%
    21:00 +25°C° 0,1 mm 3 m/S 740 mmHg 79%
    22:00 +25°C° 0,1 mm 3 m/S 741 mmHg 82%
    23:00 +24°C° 0,1 mm 3 m/S 741 mmHg 86%

    Morgen, 23 Juli, Montag

    Zeit Temperatur Niederschläge Wind Luftdruck Luftfeuchtigkeit
    00:00 +24°C° 0,1 mm 3 m/S 740 mmHg 87%
    01:00 +24°C° 0,1 mm 2 m/S 740 mmHg 89%
    02:00 +23°C° 0,1 mm 2 m/S 740 mmHg 90%
    03:00 +23°C° 0,2 mm 2 m/S 740 mmHg 90%
    04:00 +23°C° 0,2 mm 2 m/S 739 mmHg 90%
    05:00 +23°C° 0,2 mm 2 m/S 739 mmHg 91%
    06:00 +25°C° 0,6 mm 2 m/S 739 mmHg 84%
    07:00 +26°C° 0,6 mm 2 m/S 739 mmHg 78%
    08:00 +27°C° 0,6 mm 1 m/S 739 mmHg 71%
    09:00 +28°C° 0,9 mm 2 m/S 739 mmHg 68%
    10:00 +29°C° 0,9 mm 2 m/S 739 mmHg 65%
    11:00 +29°C° 0,9 mm 3 m/S 739 mmHg 62%
    12:00 +29°C° 0,7 mm 3 m/S 739 mmHg 62%
    13:00 +29°C° 0,7 mm 3 m/S 738 mmHg 62%
    14:00 +29°C° 0,7 mm 4 m/S 738 mmHg 63%
    15:00 +28°C° 0,8 mm 4 m/S 738 mmHg 66%
    16:00 +28°C° 0,8 mm 4 m/S 737 mmHg 69%
    17:00 +27°C° 0,8 mm 4 m/S 737 mmHg 73%
    18:00 +26°C° 0,1 mm 4 m/S 737 mmHg 77%
    19:00 +25°C° 0,1 mm 4 m/S 737 mmHg 81%
    20:00 +24°C° 0,1 mm 3 m/S 737 mmHg 84%
    21:00 +24°C° 1,1 mm 3 m/S 737 mmHg 86%
    22:00 +22°C° 1,1 mm 3 m/S 737 mmHg 87%
    23:00 +23°C° 1,1 mm 2 m/S 738 mmHg 89%

    übermorgen, 24 Juli, Dienstag

    Zeit Temperatur Niederschläge Wind Luftdruck Luftfeuchtigkeit
    00:00 +23°C° 1,1 mm 2 m/S 737 mmHg 87%
    01:00 +23°C° 1,1 mm 2 m/S 737 mmHg 85%
    02:00 +23°C° 1,1 mm 2 m/S 737 mmHg 84%
    03:00 +21°C° 0,4 mm 2 m/S 737 mmHg 85%
    04:00 +21°C° 0,4 mm 2 m/S 737 mmHg 86%
    05:00 +21°C° 0,4 mm 2 m/S 737 mmHg 87%
    06:00 +21°C° 1,5 mm 3 m/S 737 mmHg 86%
    07:00 +22°C° 1,5 mm 3 m/S 737 mmHg 85%
    08:00 +22°C° 1,5 mm 3 m/S 737 mmHg 85%
    09:00 +24°C° 1,3 mm 3 m/S 737 mmHg 82%
    10:00 +24°C° 1,3 mm 3 m/S 738 mmHg 79%
    11:00 +25°C° 1,3 mm 3 m/S 738 mmHg 77%
    12:00 +25°C° 0,4 mm 4 m/S 738 mmHg 72%
    13:00 +26°C° 0,4 mm 4 m/S 738 mmHg 67%
    14:00 +27°C° 0,4 mm 4 m/S 737 mmHg 62%
    15:00 +27°C° 0,1 mm 4 m/S 737 mmHg 62%
    16:00 +27°C° 0,1 mm 4 m/S 737 mmHg 62%
    17:00 +27°C° 0,1 mm 3 m/S 737 mmHg 62%
    18:00 +26°C° 0,2 mm 3 m/S 738 mmHg 67%
    19:00 +25°C° 0,2 mm 3 m/S 738 mmHg 72%
    20:00 +23°C° 0,2 mm 2 m/S 738 mmHg 78%
    21:00 +23°C° 0 mm 2 m/S 738 mmHg 80%
    22:00 +21°C° 0 mm 2 m/S 738 mmHg 82%
    23:00 +21°C° 0 mm 2 m/S 738 mmHg 84%

    25 Juli, Mittwoch

    Zeit Temperatur Niederschläge Wind Luftdruck Luftfeuchtigkeit
    00:00 +20°C° 0,1 mm 3 m/S 738 mmHg 85%
    01:00 +20°C° 0,1 mm 3 m/S 738 mmHg 86%
    02:00 +20°C° 0,1 mm 3 m/S 738 mmHg 87%
    03:00 +20°C° 0,2 mm 4 m/S 738 mmHg 89%
    04:00 +19°C° 0,2 mm 4 m/S 738 mmHg 90%
    05:00 +19°C° 0,2 mm 4 m/S 738 mmHg 92%
    06:00 +20°C° 0,2 mm 4 m/S 739 mmHg 89%
    07:00 +22°C° 0,2 mm 5 m/S 739 mmHg 85%
    08:00 +23°C° 0,2 mm 5 m/S 739 mmHg 82%
    09:00 +25°C° 0,4 mm 5 m/S 739 mmHg 75%
    10:00 +27°C° 0,4 mm 5 m/S 739 mmHg 69%
    11:00 +29°C° 0,4 mm 5 m/S 740 mmHg 62%
    12:00 +29°C° 0,8 mm 5 m/S 740 mmHg 61%
    13:00 +29°C° 0,8 mm 5 m/S 739 mmHg 59%
    14:00 +30°C° 0,8 mm 5 m/S 739 mmHg 58%
    15:00 +30°C° 0,1 mm 5 m/S 739 mmHg 59%
    16:00 +30°C° 0,1 mm 4 m/S 739 mmHg 59%
    17:00 +29°C° 0,1 mm 4 m/S 739 mmHg 60%
    18:00 +28°C° 0,1 mm 3 m/S 740 mmHg 66%
    19:00 +26°C° 0,1 mm 2 m/S 740 mmHg 73%
    20:00 +25°C° 0,1 mm 2 m/S 740 mmHg 79%
    21:00 +24°C° 0 mm 1 m/S 740 mmHg 81%
    22:00 +24°C° 0 mm 1 m/S 740 mmHg 82%
    23:00 +23°C° 0 mm 1 m/S 740 mmHg 84%

    26 Juli, Donnerstag

    Zeit Temperatur Niederschläge Wind Luftdruck Luftfeuchtigkeit
    00:00 +23°C° 0 mm 2 m/S 740 mmHg 85%
    01:00 +21°C° 0 mm 2 m/S 740 mmHg 85%
    02:00 +21°C° 0 mm 2 m/S 740 mmHg 86%
    03:00 +21°C° 0,1 mm 3 m/S 740 mmHg 87%
    04:00 +21°C° 0,1 mm 3 m/S 740 mmHg 88%
    05:00 +20°C° 0,1 mm 3 m/S 741 mmHg 89%
    06:00 +22°C° 0 mm 3 m/S 741 mmHg 84%
    07:00 +24°C° 0 mm 3 m/S 741 mmHg 79%
    08:00 +26°C° 0 mm 3 m/S 741 mmHg 74%
    09:00 +27°C° 0,3 mm 3 m/S 741 mmHg 68%
    10:00 +29°C° 0,3 mm 3 m/S 741 mmHg 61%
    11:00 +30°C° 0,3 mm 3 m/S 741 mmHg 54%
    12:00 +31°C° 0,1 mm 3 m/S 741 mmHg 52%
    13:00 +32°C° 0,1 mm 4 m/S 741 mmHg 50%
    14:00 +33°C° 0,1 mm 4 m/S 741 mmHg 48%
    15:00 +32°C° 0 mm 4 m/S 741 mmHg 51%
    16:00 +32°C° 0 mm 4 m/S 741 mmHg 53%
    17:00 +32°C° 0 mm 4 m/S 741 mmHg 55%
    18:00 +29°C° 0 mm 3 m/S 741 mmHg 62%
    19:00 +27°C° 0 mm 3 m/S 741 mmHg 70%
    20:00 +25°C° 0 mm 2 m/S 741 mmHg 78%
    21:00 +24°C° 0 mm 1 m/S 742 mmHg 79%
    22:00 +24°C° 0 mm 1 m/S 742 mmHg 81%
    23:00 +23°C° 0 mm 1 m/S 742 mmHg 83%

    27 Juli, Freitag

    Zeit Temperatur Niederschläge Wind Luftdruck Luftfeuchtigkeit
    00:00 +23°C° 0 mm 1 m/S 742 mmHg 82%
    01:00 +23°C° 0 mm 1 m/S 742 mmHg 81%
    02:00 +23°C° 0 mm 2 m/S 742 mmHg 80%
    03:00 +21°C° 0 mm 2 m/S 742 mmHg 80%
    04:00 +21°C° 0 mm 2 m/S 742 mmHg 80%
    05:00 +21°C° 0 mm 2 m/S 742 mmHg 80%
    06:00 +24°C° 0 mm 2 m/S 742 mmHg 75%
    07:00 +25°C° 0 mm 2 m/S 742 mmHg 70%
    08:00 +27°C° 0 mm 2 m/S 743 mmHg 65%
    09:00 +29°C° 0,1 mm 2 m/S 743 mmHg 59%
    10:00 +30°C° 0,1 mm 1 m/S 743 mmHg 53%
    11:00 +32°C° 0,1 mm 1 m/S 743 mmHg 47%
    12:00 +32°C° 0 mm 2 m/S 742 mmHg 45%
    13:00 +34°C° 0 mm 2 m/S 742 mmHg 43%
    14:00 +35°C° 0 mm 2 m/S 742 mmHg 41%
    15:00 +34°C° 0 mm 2 m/S 742 mmHg 43%
    16:00 +34°C° 0 mm 2 m/S 742 mmHg 45%
    17:00 +34°C° 0 mm 2 m/S 742 mmHg 46%
    18:00 +31°C° 0 mm 2 m/S 742 mmHg 52%
    19:00 +29°C° 0 mm 1 m/S 742 mmHg 57%
    20:00 +27°C° 0 mm 1 m/S 742 mmHg 62%
    21:00 +27°C° 0 mm 1 m/S 742 mmHg 64%
    22:00 +26°C° 0 mm 1 m/S 742 mmHg 65%
    23:00 +26°C° 0 mm 1 m/S 742 mmHg 66%
    Mehr zeigen